Regional Weather Roundup
Issued by NWS Portland, ME

Home | Current Version | Previous Version | Text Only | Print | Product List | Glossary On
Versions: 1 2 3 4 5 6 7 8 9 10 11 12 13 14 15 16 17 18 19 20 21 22 23 24 25 26 27 28 29 30 31 32 33 34 35 36 37 38 39 40 41 42 43 44 45 46 47 48 49 50
000
ASUS41 KGYX 260210
RWRGYX
WEATHER ROUNDUP FOR MAINE AND NEW HAMPSHIRE
NATIONAL WEATHER SERVICE GRAY ME
1000 PM EDT SUN JUN 25 2017

MEZ002-005-006-010-012-015-018-020-021-024-026-027-029-260300-
MAINE

CITY           SKY/WX    TMP DP  RH WIND       PRES   REMARKS
PORTLAND       PTCLDY    67  54  63 W7        29.88R
SANFORD        CLOUDY    67  59  75 SW6       29.90R
BAR HARBOR     MOCLDY    63  54  72 CALM      29.88R
WISCASSET      MOCLDY    66  56  70 E3        29.89R
ROCKLAND       PTCLDY    62  56  80 CALM      29.87S
FRYEBURG       PTCLDY    59  56  89 CALM      29.91S
LEWISTONAUBURN MOCLDY    61  60  97 NW3       29.90R
AUGUSTA        CLOUDY    62  57  83 CALM      29.91R
WATERVILLE     LGT RAIN  63  58  83 NE3       29.87R
BANGOR         PTCLDY    64  56  75 NW9       29.89R
GREENVILLE       N/A     53  52  96 CALM      29.87F
MILLINOCKET    MOCLDY    59  57  93 CALM      29.87F
HOULTON        LGT RAIN  60  58  92 SW13G21   29.85R
PRESQUE ISLE   CLOUDY    67  51  56 SW7       29.81R
FRENCHVILLE    CLOUDY    60  49  66 N9        29.79R
CARIBOU        CLOUDY    64  52  64 SW7       29.79R
$$

NHZ002-005-008-009-011-012-014-260300-
NEW HAMPSHIRE

CITY           SKY/WX    TMP DP  RH WIND       PRES   REMARKS
PORTSMOUTH     LGT RAIN  66  57  73 SW6       29.88R
ROCHESTER      MOCLDY    71  54  54 CALM      29.89R
NASHUA         LGT RAIN  62  61  96 VRB3      29.94S
MANCHESTER     LGT RAIN  66  57  72 S9        29.92R
CONCORD        MOCLDY    72  48  42 SW6       29.91R
LACONIA        CLOUDY   N/A N/A N/A CALM      29.92R
PLYMOUTH       FAIR      63  53  69 CALM      29.92R
BERLIN         CLOUDY    54  51  90 CALM      29.92S
WHITEFIELD     CLEAR     56  52  86 CALM      29.93S
JAFFREY        CLOUDY    60  59  96 VRB5      29.95S
KEENE          CLOUDY    66  52  60 S5        29.94R
LEBANON        CLOUDY    69  48  47 W6        29.92R
MT WASHINGTON  FOG       39  39 100 W43         N/A  VSB 1/16
$$

VTZ005-007-008-260300-
VERMONT

CITY           SKY/WX    TMP DP  RH WIND       PRES   REMARKS
ST JOHNSBURY     N/A     57  57 100 MISG      29.91S
MONTPELIER     CLOUDY    60  56  86 VRB3      29.96F
BURLINGTON     CLOUDY    64  51  62 S6        29.91R
$$

MAZ007-012-024-CTZ003-RIZ002-NYZ038-NYZ072-260300-
SOUTHERN NEW ENGLAND AND NY

CITY           SKY/WX    TMP DP  RH WIND       PRES   REMARKS
BOSTON         PTCLDY    71  57  61 W10       29.93R
WORCESTER      LGT RAIN  60  57  89 W6        29.97R
NANTUCKET      CLEAR     63  62  97 SW9       29.95S
PROVIDENCE     PTCLDY    70  59  68 SW13      29.94R
HARTFORD       MOCLDY    69  55  60 N8        29.95R
ALBANY         LGT RAIN  64  55  72 W10       29.99R
NEW YORK CITY  CLOUDY    77  64  64 E5        29.93S
$$

ANZ081-ANZ082-ANZ150-NHZ014-MEZ023>029-260300-
COASTAL MARINE OBSERVATIONS

STATION/POSITION TIME  TEMP    WIND        PRES    WAVE
                       AIR SEA DIR/SP/G            HT/PER
                 (UTC) (F)     (DEG/KT/KT) (MB)    (FT/S)
MATINICUS ROCK   0100   60     200/ 20/ 21 1010.7S
ISLE OF SHOALS   0100   68     210/ 19/ 20 1011.2R
JEFFREYS LEDGE   0106      60                N/A     3/ 8
CASHES LEDGE BUO 0050   63 62              1011.2    4/ 7
GEORGES BANK BUO 0050   56 54              1014.0    5/ 8
$$

.............KEY..............
   WCI - WIND CHILL
   TC  - TEMPERATURE IN CELSIUS
   VSB - VISIBILITY IN MILES
   HX  - HEAT INDEX
   FAIR- INDICATES FEW OR NO CLOUDS BELOW 12,000 FT, WITH NO
         SIGNIFICANT WEATHER AND/OR OBSTRUCTIONS TO VISIBILITY.






USA.gov is the U.S. government's official web portal to all federal, state and local government web resources and services.